Simultaneous Nadir Overpasses (SNOs) Predictions

Prediction of SNOs between GOES-16 and METOP-B Satellite Orbit:

Table of predicted SNOs for the next 14.0 days since TLE Epoch: 3/21/2020
Index Date Time (GOES-16) GOES-16 Lat,Lon METOP-B Lat,Lon Distance(km) Time Diff (sec)
1 03/21/2020 14:20:53 -0.03, -75.17 -0.68, -72.35 321.90 80
2 03/23/2020 02:37:13 0.03, -75.15 -0.35, -76.95 204.89 80
3 03/24/2020 02:19:13 0.02, -75.14 0.75, -71.95 363.79 80
4 03/25/2020 14:35:26 -0.03, -75.16 0.28, -76.51 154.65 80
5 03/26/2020 14:17:26 -0.03, -75.15 -0.82, -71.51 414.30 80
6 03/28/2020 02:33:46 0.03, -75.14 -0.21, -76.11 111.68 80
7 03/29/2020 02:15:48 0.04, -75.14 0.94, -71.12 457.36 80
8 03/30/2020 14:32:00 -0.04, -75.16 0.08, -75.69 60.71 80
9 04/02/2020 02:33:02 0.05, -75.14 0.05, -75.30 17.43 80




NCC Satellite Simultaneous Nadir Overpasses (SNOs) Prediction Service
